Starlink 3219

operational
NORAD ID: 49724 Int'l Des: 2021-115 Owner: SPXS Country: US Constellation: starlink
LEOCIRCULAR

About Starlink 3219

Description loading...

Live Position

Loading 3D Globe...

Upcoming Passes

Altitude History

Altitude vs Time

uPlot chart will show altitude changes over time

Two-Line Element Set

1 49724U 21115A 25351.84658677 .00000036 00000-0 20369-4 0 9996
2 49724 53.2166 156.7478 0001414 91.5528 268.5626 15.08838047223173
Epoch: Dec 17, 2025 • Age: 15 hours

Current Status

Altitude 541.5 km
Velocity 7.59 km/s
Sub-Earth Point -5.00°S, 78.6°E
Launch Date Dec 2, 2021
Age 4 years
Type internet

Technical Details

Classification Payload
Mass 290.00 kg
Dry Mass 270.00 kg
Total Mass 290.00 kg
Length 0.20 m
Diameter 2.80 m
Span 9.00 m
Shape Box + pan
Manufacturer SPXS
Bus Type Starlink
Phase Status In Orbit
Owner/State SPXS/US

Large Constellations

Loading constellations...